K4BS Weather Reports


time (UTC)temp
C
wind
direction
speed
KPH
gust
KPH
rain 1hr
cm
rain 24hr
cm
rain mn
cm
humidity
%
barometer
mb
20211025035012 13 171 0.0 0.0 0.00 0.03 0.03 95 1022.9
20211025034012 13 171 0.0 0.0 0.00 0.03 0.03 95 1022.8
20211025032013 14 142 0.0 0.0 0.00 0.03 0.03 95 1022.7
20211025031012 14 142 0.0 0.0 0.00 0.03 0.03 95 1022.8
20211025030012 14 142 0.0 0.0 0.00 0.03 0.03 95 1022.8
20211025025012 14 142 0.0 0.0 0.00 0.03 0.03 94 1023.2
20211025024012 14 142 0.0 0.0 0.00 0.03 0.03 94 1023.2
20211025023013 14 142 0.0 0.0 0.00 0.03 0.03 94 1023.0
20211025022013 14 142 0.0 0.0 0.00 0.03 0.03 94 1022.8
20211025021012 14 142 0.0 0.0 0.00 0.05 0.03 94 1022.9
20211025020012 14 142 0.0 0.0 0.00 0.05 0.03 94 1022.6
20211025015012 14 142 0.0 0.0 0.00 0.05 0.03 94 1023.2
20211025014012 14 142 0.0 0.0 0.00 0.05 0.03 94 1023.2
20211025012012 14 142 0.0 0.0 0.00 0.05 0.03 93 1023.3
20211025011014 14 142 0.0 0.0 0.00 0.05 0.03 93 1023.4
20211025010012 14 142 0.0 0.0 0.00 0.05 0.03 93 1023.5
20211025005012 14 142 0.0 0.0 0.00 0.05 0.03 92 1023.7
20211025004012 14 142 0.0 0.0 0.00 0.05 0.03 92 1023.4
20211025003013 14 142 0.0 0.0 0.00 0.05 0.03 92 1023.5
20211025002012 15 142 0.0 0.0 0.00 0.05 0.03 91 1023.4
20211025001012 15 142 0.0 0.0 0.00 0.05 0.03 91 1023.6
20211025000011 15 142 0.0 0.0 0.00 0.05 0.03 90 1023.7
20211024235013 15 142 0.0 1.6 0.00 0.05 0.03 90 1023.5
20211024233013 15 142 0.0 0.0 0.00 0.05 0.03 89 1023.3
20211024225012 17 142 0.0 0.0 0.00 0.05 0.03 87 1023.3
20211024224012 17 142 0.0 0.0 0.00 0.05 0.03 86 1023.4
20211024222012 17 142 0.0 0.0 0.03 0.05 0.03 84 1023.1
20211024221013 18 142 0.0 0.0 0.03 0.05 0.03 82 1023.1
20211024220011 18 142 0.0 0.0 0.03 0.05 0.03 80 1023.1
20211024215013 18 142 0.0 0.0 0.03 0.05 0.03 77 1023.2
20211024214013 19 142 0.0 0.0 0.03 0.05 0.03 76 1023.1
20211024213012 19 142 0.0 0.0 0.03 0.05 0.03 74 1023.1
20211024211012 20 142 0.0 0.0 0.00 0.03 0.00 71 1023.1
20211024205013 20 142 0.0 0.0 0.00 0.03 0.00 66 1022.8
20211024204012 20 142 0.0 0.0 0.00 0.03 0.00 62 1023.0
20211024203012 20 142 0.0 0.0 0.00 0.03 0.00 60 1023.1
20211024202011 20 142 0.0 1.6 0.00 0.03 0.00 59 1023.3
20211024200011 21 142 0.0 0.0 0.00 0.03 0.00 63 1023.2
20211024193012 20 142 0.0 0.0 0.00 0.03 0.00 64 1023.0
20211024192012 20 153 0.0 0.0 0.00 0.03 0.00 62 1023.1
20211024191012 20 153 0.0 3.2 0.00 0.03 0.00 64 1023.0
20211024185011 20 148 0.0 0.0 0.00 0.03 0.00 64 1023.2
20211024184016 20 148 0.0 1.6 0.00 0.03 0.00 65 1023.3
20211024181012 20 107 0.0 1.6 0.00 0.03 0.00 68 1023.6
20211024175012 20 36 0.0 3.2 0.00 0.03 0.00 65 1023.8
20211024174012 19 234 0.0 0.0 0.00 0.03 0.00 68 1024.0
20211024172012 18 239 0.0 1.6 0.00 0.03 0.00 71 1024.6
20211024171012 18 237 0.0 1.6 0.00 0.03 0.00 71 1024.8
20211024170012 18 236 0.0 1.6 0.00 0.03 0.00 76 1024.8
20211024165012 17 248 0.0 0.0 0.00 0.03 0.00 77 1024.9
20211024164014 17 248 0.0 0.0 0.00 0.03 0.00 77 1025.1
20211024163011 17 248 0.0 0.0 0.00 0.03 0.00 78 1025.3
20211024162012 17 248 0.0 0.0 0.00 0.03 0.00 81 1025.4
20211024161012 17 234 0.0 1.6 0.00 0.03 0.00 80 1025.4
20211024154012 15 267 0.0 0.0 0.00 0.03 0.00 96 1025.3
20211024153012 15 267 0.0 1.6 0.00 0.03 0.00 99 1025.2
20211024150015 13 161 0.0 1.6 0.00 0.03 0.00 99 1025.5
20211024145012 13 161 0.0 0.0 0.00 0.03 0.00 99 1025.4
20211024144016 12 161 0.0 1.6 0.00 0.05 0.00 99 1025.6
20211024143011 12 152 0.0 0.0 0.00 0.05 0.00 99 1025.8
20211024142012 12 152 0.0 0.0 0.00 0.05 0.00 99 1025.9
20211024141012 11 152 0.0 0.0 0.00 0.05 0.00 99 1025.9
20211024135011 10 152 0.0 0.0 0.00 0.05 0.00 99 1025.9
20211024134011 9 152 0.0 0.0 0.00 0.05 0.00 99 1025.9
20211024133012 8 152 0.0 0.0 0.00 0.05 0.00 98 1026.0
20211024132011 8 152 0.0 0.0 0.00 0.05 0.00 98 1026.0
20211024131011 8 152 0.0 0.0 0.00 0.05 0.00 98 1026.1
20211024125012 7 152 0.0 0.0 0.00 0.05 0.00 98 1025.7
20211024124012 7 152 0.0 0.0 0.00 0.05 0.00 97 1025.5
20211024123011 7 152 0.0 0.0 0.00 0.05 0.00 97 1025.5
20211024122012 7 152 0.0 0.0 0.00 0.05 0.00 97 1025.4
20211024121012 7 152 0.0 0.0 0.00 0.05 0.00 97 1025.2
20211024120011 7 152 0.0 0.0 0.00 0.05 0.00 97 1025.3
20211024113011 7 152 0.0 0.0 0.00 0.05 0.00 97 1025.1
20211024112011 7 152 0.0 0.0 0.00 0.05 0.00 97 1025.1
20211024110011 7 152 0.0 0.0 0.00 0.05 0.00 97 1025.0
20211024105012 7 152 0.0 0.0 0.00 0.05 0.00 97 1024.7
20211024104012 7 152 0.0 0.0 0.00 0.05 0.00 97 1024.5
20211024103011 7 152 0.0 0.0 0.00 0.05 0.00 97 1024.6
20211024102012 7 152 0.0 0.0 0.00 0.05 0.00 97 1024.4
20211024101012 8 152 0.0 0.0 0.00 0.05 0.00 97 1024.3
20211024100011 8 152 0.0 0.0 0.00 0.05 0.00 96 1024.4
20211024094011 8 152 0.0 0.0 0.00 0.05 0.00 96 1023.9
20211024092011 8 152 0.0 0.0 0.00 0.05 0.00 97 1023.5
20211024091011 8 152 0.0 0.0 0.00 0.05 0.00 97 1023.4
20211024090011 8 152 0.0 0.0 0.00 0.05 0.00 96 1023.5
20211024082012 8 152 0.0 0.0 0.00 0.05 0.00 96 1023.3
20211024081011 8 152 0.0 0.0 0.00 0.05 0.00 96 1023.2
20211024074011 8 152 0.0 0.0 0.00 0.05 0.00 96 1023.3
20211024073012 8 152 0.0 0.0 0.00 0.05 0.00 96 1023.2
20211024072012 8 152 0.0 0.0 0.00 0.05 0.00 96 1023.2
20211024071011 8 152 0.0 0.0 0.00 0.05 0.00 96 1023.2
20211024070010 8 152 0.0 0.0 0.00 0.05 0.00 96 1023.1
20211024064011 8 152 0.0 0.0 0.00 0.05 0.00 96 1023.1
20211024063011 8 152 0.0 0.0 0.00 0.05 0.00 96 1023.2
20211024062011 8 152 0.0 0.0 0.00 0.05 0.00 96 1023.1
20211024060011 9 152 0.0 0.0 0.00 0.05 0.00 96 1023.0
20211024054011 9 152 0.0 0.0 0.00 0.05 0.00 96 1023.1
20211024051013 9 152 0.0 0.0 0.00 0.05 0.00 95 1022.8
20211024050010 9 152 0.0 0.0 0.00 0.05 0.00 95 1022.8
20211024045011 9 152 0.0 0.0 0.00 0.05 0.00 95 1022.9
20211024042011 10 152 0.0 0.0 0.00 0.05 0.00 95 1022.5
20211024040010 10 152 0.0 0.0 0.00 0.05 0.00 95 1022.5